Погода в Алдане

Погода в Алдане : погода сейчас, прогноз погоды и архив. Всё, что Вы хотите узнать о погоде в Алдане!

Хотите узнать прогноз погоды в Алдане? Тогда Вам сюда: Погода в Алдане

Поиск расширенной информации на нашем сайте:

Другие новости

Новости СМИ2

Главная страница сайта

Новости сайта

03.07.2017

Напоминаем, что на нашем специализированном сайте Метеоцентр.Азия вы можете получить высокодетализированные автоматические прогнозы погоды по пунктам России, СНГ и мира в авиационном формате (включающие направление и скорость ветра, видимость, явления погоды, количество и форму облачности, нижнюю и верхнюю границу облачности).


Погода в Алдане - сегодня

Время (UTC), дата Ветер
(°,м/с) 
Видим.   Явления Облачность Т
(°С)
Тd
(°С)
f(%) Тe
(°С)
Pmin
(гПа)
dP
(гПа)
Po
(мм)
O2
(г/м3)
Тmin Tmax R s Состояние
почвы
15 21.04.18 190 (Ю) 20000 м    ясно 
-6.7 -10.9 72 -6  1025.7  0.6  706  292           
18 21.04.18 200 (Ю) 20000 м    ясно 
-9.3 -12.8 76 -12  1027.2  0.5  706  296           
21 21.04.18 190 (Ю) 20000 м    8/0 верхняя 
[Ci fib]
-8.8 -11.7 79 -10  1027.3  0.3  706  295           
00 22.04.18 220 (ЮЗ) 20000 м    9/0 верхняя 
[Ci fib]
-0.4 -8.7 53 -2  1024.5  -0.1  706  286  -10.1      99  равномерный
сухой снег
100% 
03 22.04.18 250 (З) 20000 м    8/0 верхняя 
[Ci fib]
+3.3 -7.9 44 +2  1021.9  -1.3  705  281           
06 22.04.18 230 (ЮЗ) 20000 м    10/3 1000 м верхняя 
[Cu hum|Cs]
+4.2 -7.3 43 +2  1020.1  -1.4  704  280           
09 22.04.18 250 (З) 20000 м    10/4 1000 м верхняя 
[Sc diur, vesp|Ci fib]
+4.6 -5.4 48 +4  1018.8  -1.1  703  279           
12 22.04.18 190 (Ю) 20000 м    10/5 1000 м верхняя 
[Sc|Cs]
+3.2 -3.2 63 +4  1018.9  -0.3  703  280    +4.9       
15 22.04.18 240 (ЮЗ) 20000 м    10/6 1000 м верхняя 
[Sc|Cs]
+2.6 -4 62 +3  1019.1  0.1  703  281           
18 22.04.18 200 (Ю) 20000 м    10/5 1000 м верхняя 
[Sc|Cs]
+2 -4.4 63 +3  1018.1  -1.1  702  281           
21 22.04.18 220 (ЮЗ) 20000 м    8/4 1000 м верхняя 
[Sc|Ci fib]
+2.6 -4.4 60 +3  1017.4  -0.5  702  281           
00 23.04.18 210 (ЮЗ) 20000 м    8/0 средняя, верхняя 
[Ac trans|Ci fib]
+5.7 -3 54 +5  1015.6  -0.8  701  277  +0.7      96  равномерный
сухой снег
100% 
03 23.04.18 200 (Ю) 20000 м    9/3 1000 м средняя, верхняя 
[Sc|Ac trans|Ci fib]
+8.5 -2.8 45 +8  1012.6  -2  700  274           
06 23.04.18 230 (ЮЗ) 4{11}  20000 м    4/4 1000 м 
[Cu hum]
+10.8 -2.9 38 +10  1009.2  -2.5  698  271           
09 23.04.18 200 (Ю) 3{10}  20000 м    8/3 1000 м средняя, верхняя 
[Cu hum|Ac trans|Ci fib]
+10.1 -4.5 35 +10  1007.1  -2.2  696  271           
12 23.04.18 210 (ЮЗ) 20000 м    8/3 1000 м верхняя 
[Sc diur, vesp|Ci fib]
+7.7 -5.8 38 +6  1006.8  -0.9  696  273    +12       
15 23.04.18 260 (З) 2{12}  20000 м    10/3 600 м кучево-дожд., средняя, верхняя 
[Cb cap|Ac trans|Cs]
+7.8 -3.9 43 +8  1005.6  -1  695  273           
18 23.04.18 290 (З) 20000 м    10/3 1000 м кучево-дожд., средняя, верхняя 
[Cb cap|Ac trans|Ci fib]
+5.7 -4.9 46 +5  1007  0.7  695  275           
21 23.04.18 280 (З) 20000 м    10/4 600 м кучево-дожд., средняя, верхняя 
[Cb cap|Ac trans|Cs]
+4 -0.3 74 +4  1009  1.4  697  276           
09 24.04.18 270 (З) 3{11}  20000 м    9/8 600 м кучево-дожд., верхняя 
[Cb cap|Ci fib]
+2.1 -12.9 32 +1  1008.7  -1.1  696  279           
12 24.04.18 220 (ЮЗ) 20000 м    8/8 1000 м 
[Sc diur, vesp]
+0.8 -10.7 42 +1  1008.3  -0.6  695  280    +4  0.0     
15 24.04.18 тихо ()   20000 м    6/0 средняя, верхняя 
[Ac trans|Ci fib]
-1.5 -6.7 68 -2  1008.9  -0.1  695  282           
18 24.04.18 тихо ()   20000 м    3/0 верхняя 
[Ci fib]
-4.4 -13.5 49 -4  1011.7  1.6  696  286           
21 24.04.18 250 (З) 20000 м    ясно 
-7.8 -13.9 62 -8  1013.7  0.9  697  290           
00 25.04.18 250 (З) 20000 м    3/3 1000 м 
[Cu hum]
-3.8 -13 49 -6  1012.2  -0.2  697  286  -7.8      86  равномерный
сухой снег
100% 
Время (UTC), дата Ветер
(°,м/с) 
Видим.   Явления Облачность Т
(°С)
Тd
(°С)
f(%) Тe
(°С)
Pmin
(гПа)
dP
(гПа)
Po
(мм)
O2
(г/м3)
Тmin Tmax R s Состояние
почвы

Для получения пояснительной информации подведите курсор к названию столбца.

ПОГОДА в Алдане - архив

Всё, что Вы хотите узнать о погоде в Алдане - удобно и подробно!

Выберите нужную дату (начиная с 1 января 2015* года) и нажмите кнопку "Найти".
Будут отображены архивные сводки погоды по пункту Алдан, начиная с указанной даты.


Отображать данные в формате CSV (для использования в таблицах Excel)


Внимание! Наш архив погоды предназначен исключительно для личного некоммерческого использования в познавательных целях. Если Вам необходимы официальные справки о состоянии погоды (для производственных, юридических, коммерческих и т.п. целей), обращайтесь в органы Росгидромета.

*Примечание: данная дата относится к архиву по метеостанциям СССР (Россия, СНГ, Балтия).
Архив по метеостанциям Зарубежной Европы и Азии (кроме Китая) хранится 10 дней, по другим регионам земного шара (Китай, Африка, Америка, Австралия, Океания) - 1 день.

Алдан - район местоположения метеостанции


Название, широта, долгота, высота метеостанции:
Алдан 58.6°ш. 125.4°д. 79 м над ур. моря [Российская Федерация]

Дополнительная информация

В oтличие oт бoльшинства пoгoдных сайтoв мы публикуем пoдрoбную метеoинфoрмацию в детальнoм прoфессиoнальнoм фoрмате.

Характеристики температуры и влажнoсти вoздуха измеряются на высoте 2 м в тени вдали oт зданий и деревьев.
Скoрoсть ветра измеряется на высoте 10 м (на урoвне рoста челoвека скoрoсть ветра ниже в 1.5-2 раза). Если метеoстанция нахoдится в гoрoде или в лесу, тo скoрoсть ветра занижена на 2-4 м/с пo сравнению с oткрытым местoм. Скoрoсть ветра над акватoриями крупных рек и oзёр, а также на вершинах хoлмoв на 2-5 м/с выше, чем в oбычных услoвиях.
Атмoсфернoе давление в разных тoчках местнoсти мoжет значительнo oтличаться oт давления на метеoстанции, в зависимoсти oт услoвий рельефа (при пoдъёме на 10 м давление пoнижается примернo на 1 мм рт.ст.).